Regional Weather Roundup
Issued by NWS

Home | Current Version | Previous Version | Text Only | Print | Product List | Glossary On
Versions: 1 2 3 4 5 6 7 8 9 10 11 12 13 14 15 16 17 18 19 20 21 22 23 24 25 26 27 28 29 30 31 32 33 34 35 36 37 38 39 40 41 42 43 44 45 46 47 48 49 50
000
ASCA42 TJSJ 211711
RWRPR
PUERTO RICO/U.S. VIRGIN ISLANDS HOURLY WEATHER ROUNDUP
NATIONAL WEATHER SERVICE SAN JUAN PR
100 PM AST TUE OCT 21 2014

PRZ001-004-211800-
PUERTO RICO

CITY           SKY/WX    TMP DP  RH WIND       PRES   REMARKS
SAN JUAN LMM   MOSUNNY   88  75  66 NE18      29.92F HX  97
MAYAGUEZ       MOSUNNY   88  68  51 W10       29.95F HX  91
AGUADILLA      MOSUNNY   88  73  62 NE13      29.95F HX  96
CEIBA          SUNNY     88  72  58 E9        29.95F HX  94
$$

PRZ006-007-211800-
U.S. VIRGIN ISLANDS

CITY           SKY/WX    TMP DP  RH WIND       PRES   REMARKS
CHRISTIANSTED  MOSUNNY   88  73  62 E14       29.94F HX  96
$$

HOURLY WEATHER ROUNDUP FOR THE NEWS MEDIA

CITY           SKY/WX    TMP DP  RH WIND       PRES   REMARKS
MIAMI          LGT RAIN  78  74  87 VRB6      29.97F
ORLANDO        CLOUDY    85  69  58 S5        29.95F
NEW YORK       LGT RAIN  63  53  70 E7        29.87F
NEWARK         PTSUNNY   65  51  60 E7        29.85F
CHICAGO        PTSUNNY   52  40  63 N17       30.17S
HARTFORD       CLOUDY    61  54  77 S10       29.92F
BOSTON         PTSUNNY   62  56  80 E7        29.93F
DALLAS         SUNNY     76  57  51 CALM      30.11F
PHILADELPHIA   MOSUNNY   67  49  52 CALM      29.84F



USA.gov is the U.S. government's official web portal to all federal, state and local government web resources and services.